Blattenbach Aussen Messungen

Zurück zum Überblick

Zeitpunkt Temperatur Temperatur Kabelsensor Luftfeuchte
21.01.2019 16:11:27 2,9 C 2,8 C 68,0%
21.01.2019 16:04:27 3,0 C 2,8 C 68,0%
21.01.2019 15:57:26 3,2 C 2,8 C 68,0%
21.01.2019 15:50:26 3,2 C 2,7 C 68,0%
21.01.2019 15:43:24 3,2 C 2,7 C 67,0%
21.01.2019 15:36:25 3,1 C 2,7 C 67,0%
21.01.2019 15:29:27 3,3 C 2,7 C 67,0%
21.01.2019 15:22:24 3,3 C 2,7 C 68,0%
21.01.2019 15:15:23 3,3 C 2,7 C 68,0%
21.01.2019 15:08:26 3,3 C 2,7 C 68,0%
21.01.2019 15:01:26 3,2 C 2,7 C 68,0%
21.01.2019 14:54:27 3,3 C 2,7 C 68,0%
21.01.2019 14:47:27 3,2 C 2,7 C 68,0%
21.01.2019 14:40:26 3,3 C 2,7 C 68,0%
21.01.2019 14:33:26 3,3 C 2,6 C 68,0%
21.01.2019 14:26:28 3,2 C 2,6 C 68,0%
21.01.2019 14:19:24 3,2 C 2,6 C 68,0%
21.01.2019 14:12:27 3,1 C 2,6 C 69,0%
21.01.2019 14:05:26 3,2 C 2,6 C 69,0%
21.01.2019 13:58:26 3,1 C 2,6 C 69,0%
21.01.2019 13:51:24 3,1 C 2,6 C 69,0%
21.01.2019 13:44:25 3,1 C 2,5 C 69,0%
21.01.2019 13:37:25 3,0 C 2,5 C 69,0%
21.01.2019 13:30:27 3,0 C 2,5 C 69,0%
21.01.2019 13:23:26 2,9 C 2,5 C 70,0%
21.01.2019 13:16:28 2,7 C 2,5 C 70,0%
21.01.2019 13:09:25 2,6 C 2,5 C 70,0%
21.01.2019 13:02:26 2,6 C 2,5 C 70,0%
21.01.2019 12:55:27 2,5 C 2,5 C 70,0%
21.01.2019 12:48:27 2,3 C 2,4 C 70,0%
21.01.2019 12:41:26 2,2 C 2,4 C 70,0%
21.01.2019 12:34:28 2,3 C 2,4 C 70,0%
21.01.2019 12:27:25 2,4 C 2,4 C 70,0%
21.01.2019 12:20:26 2,4 C 2,4 C 70,0%
21.01.2019 12:13:24 2,3 C 2,4 C 70,0%
21.01.2019 12:06:25 2,2 C 2,4 C 70,0%
21.01.2019 11:59:24 2,1 C 2,4 C 69,0%
21.01.2019 11:52:28 1,9 C 2,4 C 69,0%
21.01.2019 11:45:25 1,9 C 2,4 C 69,0%
21.01.2019 11:38:24 1,7 C 2,4 C 69,0%
21.01.2019 11:31:26 1,5 C 2,4 C 70,0%
21.01.2019 11:24:27 1,4 C 2,4 C 70,0%
21.01.2019 11:17:26 1,3 C 2,4 C 70,0%
21.01.2019 11:10:23 1,2 C 2,4 C 70,0%
21.01.2019 11:03:25 1,2 C 2,4 C 70,0%
21.01.2019 10:56:12 1,1 C 2,4 C 70,0%
21.01.2019 10:49:12 1,0 C 2,4 C 71,0%
21.01.2019 10:42:10 0,9 C 2,4 C 71,0%
21.01.2019 10:35:09 0,7 C 2,4 C 71,0%
21.01.2019 10:28:13 0,5 C 2,4 C 72,0%